DELTA 1 DEB, 720

Orbit data source: Space-Track

DELTA 1 DEB, 720 is space debris in LEO originally from a launch on Sat, 21 Dec 1963 UTC launched from the Air Force Western Test Range (AFWTR). Debris objects in space refer to the collection of defunct objects orbiting the Earth. Examples of debris include non-operational satellites, rocket bodies, and fragments generated from explosions, collisions, or faulty payload assembly.

Loading next visibility...
Identifier
720, 1963-054C
Orbit
LEO
Country
Flag of USUS
Related business
Manufacturer
Unknown
Mission
Spacecraft
Bus & Motor
Unknown
Mass
~1 kg wet, ~1 kg dry
Launch date (UTC)
1963-12-21 (63 years ago)
Launch vehicle
Unknown
Launch site
Air Force Western Test Range (AFWTR)
Object type
Payload
Rocket body
Debris
Shape & HBR
CABLE + BOX, 1.1 m
Radar Cross Section
Medium (>0.1 m² and <1 m²)

Expand to show TLE details & history
Last TLE update: 2 days ago

TLE from 2 days ago
0 DELTA 1 DEB
1 00720U 63054C   26263.06011675  .00000200  00000-0  87984-4 0  9994
2 00720  58.4711 150.1533 0106684 172.8163 187.4425 14.50768112295257
Epoch: 2026-09-20T01:26Z
TLE epoch observation values (Epoch: 2026-09-20T01:26:34.087Z)
Latitude
-0.00002°
Longitude
129.55154°
Altitude
799.68 km
Speed
7.415 km/s
True Right ascension
10h 00m 36s
True Declination
0° 00' 00"
Sunlit
Object was in daylight at epoch
Visualization orbit readout
Latitude
Unknown
Longitude
Unknown
Altitude
Unknown
Speed
Unknown
Apparent Right ascension
Unknown
Apparent Declination
Unknown
Sunlit
N/A
Visualization observer readout
Local Sidereal Time
16:43:11
Azimuth
Unknown
Elevation
Unknown
Doppler factor
Unknown
Orbital elements
Apogee altitude
798.341 km
Perigee altitude
646.835 km
Semi-major axis
7,100.725 km
Eccentricity
0.01067
Inclination
58.4711°
RAAN
150.1533°
Arg. of periapsis
172.8163°
True anomaly
187.28621°
Mean anomaly
187.4425°
Eccentric anomaly
187.36415°
Mean motion
3.62735 °/min
Orbital period
99.25 mins
BSTAR
0.000087984
Loading maneuver chart data...
Computing Atmospheric mass density...
Loading historical data...
Loading historical data...
Loading historical data...
Loading historical data...
Loading historical data...
Loading historical data...
Loading historical data...
Other satellites on launch #54 in the year 1963 (1963-12-21 UTC)

Documentation

Showing up to 5 results
|